Location: Tuebingen alte Sternwarte
(48.5376°N, 9.0555°E)
Time: 03:08:02
(UTC+01:00)

ISS - Visible Passes

Search period start: 25 February 2018 00:00
Search period end: 07 March 2018 00:00
Orbit: 402 x 407 km, 51.6° (Epoch: 25 February)

Date Brightness Start Highest point End Pass type
(mag) Time Alt. Az. Time Alt. Az. Time Alt. Az.
26 Feb -0.9 06:24:41 10° S 06:26:44 16° SE 06:28:46 10° E visible
28 Feb -2.0 06:15:29 10° SSW 06:18:24 30° SE 06:21:19 10° E visible
01 Mar -1.4 05:24:04 11° S 05:26:17 18° SE 05:28:39 10° E visible
02 Mar -0.8 04:34:13 11° SE 04:34:14 11° SE 04:35:14 10° ESE visible
02 Mar -3.3 06:06:55 10° SW 06:10:08 56° SSE 06:13:22 10° ENE visible
03 Mar -2.6 05:16:53 27° S 05:17:55 35° SSE 05:20:57 10° E visible
04 Mar -1.3 04:26:47 19° ESE 04:26:47 19° ESE 04:28:21 10° E visible
04 Mar -3.9 05:59:26 16° WSW 06:01:56 85° NNW 06:05:13 10° ENE visible
05 Mar -3.7 05:09:14 59° SSW 05:09:36 66° SSE 05:12:52 10° ENE visible
06 Mar -1.4 04:18:58 23° E 04:18:58 23° E 04:20:27 10° ENE visible
06 Mar -3.6 05:51:36 19° W 05:53:46 58° NNW 05:57:00 10° ENE visible
